Wind_Speed
19 21 22 21 19 16 17 19 22 23 23 22 20 18 18 20 21 22 23 25 26 26 25 22 20 20 19 19 19 20 21 21 21 20 20 20 20 19 18 17 16 15 14 14 15 15 16 16 15 14 13 13 13 12 12 13 13 14 13 14 14 15 15 17 18 17 16 14 15 16 15 15 16 16 17 17 17 17 17 18 18 18 17 17 17
13 15 18 18 17 15 16 18 21 23 24 23 21 19 18 19 22 25 25 24 25 26 25 22 20 20 19 19 20 21 20 21 21 20 19 20 20 19 18 17 16 15 15 15 15 15 15 15 15 15 15 14 14 13 13 13 14 14 15 16 16 16 17 17 17 18 18 17 17 17 16 16 17 17 17 18 18 18 18 18 18 18 18 18 18
12 13 16 17 16 17 17 19 21 23 23 23 22 21 18 20 24 27 25 23 24 26 25 22 20 19 18 18 20 20 20 20 19 18 19 19 19 18 18 18 17 16 16 15 15 14 13 14 15 15 15 15 14 13 13 14 15 15 16 17 18 18 18 17 17 18 19 19 19 19 17 17 18 18 18 18 18 18 18 19 19 19 19 19 19
14 12 13 14 16 18 19 19 20 22 22 21 22 21 19 22 27 28 25 23 25 27 26 23 20 19 18 19 19 19 19 19 18 18 19 19 18 19 19 18 18 17 16 16 15 14 14 14 15 15 15 14 14 13 14 15 15 15 16 16 17 18 18 17 17 18 19 20 20 20 19 18 18 18 18 18 18 19 19 20 20 19 19 19 20
14 12 12 14 16 17 19 19 18 20 22 22 23 22 21 26 30 28 25 26 27 28 26 22 20 18 18 19 19 18 19 18 18 19 19 19 19 20 19 19 18 17 17 17 15 14 14 15 15 15 15 14 13 14 14 15 16 15 16 16 17 18 18 16 17 18 19 19 20 20 20 20 19 19 19 19 19 20 20 20 20 20 19 20 20
14 14 15 16 15 15 17 18 18 19 22 24 25 24 24 29 31 26 25 27 28 28 26 22 21 20 20 20 20 19 19 19 20 21 20 20 20 20 20 19 18 17 17 16 14 14 16 17 16 15 15 14 13 14 15 15 16 16 17 17 18 19 19 18 18 18 19 20 20 21 21 21 21 20 20 20 21 21 21 20 20 20 20 20 20
16 16 16 16 16 16 16 18 19 19 20 23 25 25 26 29 28 25 27 30 30 29 26 23 22 21 21 22 21 20 21 21 22 22 21 21 22 21 20 19 18 17 16 15 13 13 15 16 16 15 15 14 14 15 15 15 16 17 18 19 18 19 19 19 19 19 20 20 20 20 20 21 22 22 22 22 22 23 22 21 20 21 21 21 22
18 18 17 17 19 18 16 17 19 20 21 24 25 24 27 29 26 25 29 31 30 28 26 23 22 21 22 23 22 22 22 22 22 22 22 22 22 21 20 19 18 18 17 15 13 11 12 15 15 15 15 15 15 16 15 15 16 17 17 18 18 18 19 19 19 20 20 20 20 21 21 22 23 24 24 24 24 25 24 22 23 23 23 23 24
19 18 18 19 20 17 16 17 19 19 21 24 25 25 28 28 26 27 30 31 28 26 24 22 22 22 23 23 23 23 23 22 22 22 22 21 21 21 20 19 19 19 18 16 15 14 16 19 20 18 16 16 16 16 15 15 16 16 16 17 18 18 19 19 20 21 22 22 23 23 24 24 24 24 24 24 24 24 24 24 25 26 25 25 26
20 18 17 17 17 16 17 18 18 18 20 24 25 27 29 27 26 28 30 29 25 23 22 21 21 22 23 24 24 23 23 23 23 22 21 21 21 21 20 20 19 19 19 18 17 17 18 21 21 20 19 18 18 17 17 17 17 17 18 19 20 20 21 21 21 22 22 23 24 25 26 26 26 25 24 23 24 24 24 24 24 26 26 27 27
21 19 16 15 15 14 16 18 18 18 21 24 25 29 29 26 25 26 26 24 22 22 21 20 21 22 22 22 22 22 23 25 26 25 22 21 21 20 20 20 20 20 20 20 20 21 21 21 21 21 21 21 21 21 20 19 19 19 19 20 21 22 23 23 23 24 24 24 24 25 26 27 27 26 26 25 25 25 25 25 24 25 27 28 28
18 17 14 12 13 14 15 17 19 20 23 25 27 29 28 24 23 23 22 21 21 22 22 21 22 24 24 23 22 23 24 25 26 24 21 20 20 20 20 20 20 21 22 22 23 24 23 22 21 21 22 23 23 24 23 22 22 21 22 22 23 24 25 25 26 26 26 26 26 26 26 27 27 28 28 28 28 28 27 26 25 26 28 29 29
13 13 13 10 10 12 13 14 18 22 26 27 29 29 25 22 22 21 20 20 20 23 24 23 24 25 25 25 26 26 26 25 24 23 21 20 21 21 21 21 21 22 22 23 25 25 24 23 23 22 23 24 25 25 25 25 25 24 24 25 25 26 27 27 27 26 26 26 26 26 26 27 27 28 29 29 29 30 30 29 30 31 33 33 33
15 10 9 9 8 11 13 12 15 20 25 27 30 29 24 21 22 22 21 20 21 23 26 27 26 26 26 28 28 27 27 27 26 24 22 22 22 22 22 22 22 22 23 24 25 25 24 25 25 24 24 24 25 26 26 27 27 27 27 27 28 28 27 27 26 25 25 24 25 25 26 27 28 29 30 30 31 32 33 33 34 35 37 37 37
17 10 8 10 14 17 17 15 15 19 23 24 26 28 26 24 24 24 24 23 22 23 27 30 29 27 28 29 29 27 27 27 27 26 24 23 23 23 23 22 22 23 24 24 25 26 27 27 26 26 26 27 27 26 26 27 29 30 30 30 29 28 26 25 25 25 26 26 26 27 28 28 29 30 31 32 32 33 35 35 35 35 37 39 41
16 13 13 14 18 23 22 19 19 22 23 23 24 27 28 27 26 25 24 23 22 22 25 28 28 26 27 28 27 26 27 27 27 26 25 24 23 24 25 24 24 25 26 26 27 29 29 28 27 27 27 29 29 28 29 30 31 31 32 32 31 29 27 26 26 27 28 29 30 31 31 31 32 33 34 35 35 35 37 38 38 39 42 44 45
15 15 17 17 18 22 26 25 22 21 22 24 25 26 27 27 26 25 23 23 23 23 24 26 27 26 27 28 27 25 26 26 26 25 25 24 25 26 27 27 28 29 30 30 30 31 31 30 29 28 29 29 30 32 33 33 31 31 33 33 33 33 30 29 29 29 30 30 31 32 33 34 35 36 38 39 40 40 41 43 44 45 47 47 47
14 14 15 15 16 17 22 24 20 18 20 23 24 24 24 25 24 24 23 23 24 24 24 24 24 23 24 25 25 24 24 24 24 24 24 25 26 27 27 28 29 30 31 32 32 33 32 31 30 29 30 30 31 32 32 30 29 30 32 32 33 33 32 31 32 33 33 32 33 34 35 37 38 40 41 42 43 44 45 46 48 49 51 51 51
14 14 13 13 13 13 17 20 18 17 18 19 21 22 24 26 26 26 27 26 24 23 22 21 21 21 22 24 25 25 26 26 25 25 26 27 27 28 28 29 29 29 30 30 29 29 29 29 28 28 28 28 27 27 28 28 29 31 31 31 31 32 32 33 35 36 36 36 37 38 39 40 42 43 44 45 46 47 48 50 51 53 54 56 57
16 14 13 13 14 15 19 22 20 19 20 20 21 25 28 30 28 26 25 25 22 21 21 21 22 22 23 24 25 25 25 24 25 26 26 27 28 28 28 28 27 26 26 25 25 25 26 27 28 28 28 28 27 26 26 28 29 30 30 30 30 31 32 34 35 37 38 40 41 42 43 44 45 46 48 49 50 51 52 53 54 55 57 58 59
17 15 13 14 14 15 18 23 24 24 25 25 27 29 30 30 27 23 21 21 21 21 21 22 22 21 21 21 21 21 21 21 22 23 25 25 26 27 27 26 26 26 25 25 24 24 25 25 26 27 28 28 27 27 27 28 28 29 30 30 31 32 33 35 36 38 40 42 43 45 46 47 48 49 50 51 52 53 54 55 56 57 58 60 62
17 16 15 15 16 15 15 20 24 25 25 25 27 29 28 26 24 22 21 19 18 18 18 18 18 18 19 20 20 19 19 20 22 23 24 24 25 26 26 26 26 26 26 26 26 26 26 27 27 28 28 28 28 28 28 28 29 30 31 33 34 35 36 38 40 42 43 45 46 47 48 49 50 50 51 52 53 54 56 57 59 60 62 64 66
17 18 16 15 17 17 16 18 20 19 17 17 19 21 22 20 18 17 16 15 15 15 14 15 16 17 19 20 21 20 21 22 23 24 24 25 25 25 25 25 26 27 28 28 28 28 28 28 29 29 30 29 29 29 30 30 32 33 34 36 37 38 40 41 43 44 45 46 47 48 49 50 51 53 54 55 57 58 60 61 63 64 66 67 69
19 20 19 17 17 16 16 17 18 17 16 15 15 15 16 16 16 15 14 14 14 13 13 14 16 17 17 18 20 22 23 24 25 25 25 24 25 25 26 26 27 29 29 29 29 29 29 30 30 31 31 31 31 32 33 34 35 36 37 39 40 41 42 44 44 45 46 47 49 50 52 53 54 56 57 59 60 61 63 64 65 67 68 69 70
20 19 19 19 19 17 16 15 15 17 17 17 18 17 16 17 17 17 16 16 15 16 17 18 19 19 18 18 20 22 24 24 24 25 25 25 26 27 28 29 30 30 30 30 31 31 32 32 33 33 34 34 35 36 37 38 39 40 41 42 43 44 45 45 46 47 48 49 51 52 54 55 57 58 59 60 62 63 65 67 68 69 70 71 71
22 20 20 22 23 22 21 19 18 19 19 18 19 18 17 16 16 16 17 18 19 19 21 23 24 23 23 24 24 25 25 25 25 26 27 28 29 29 30 31 31 32 33 33 34 34 35 36 37 37 38 38 39 40 40 41 42 43 43 44 44 45 46 47 48 49 50 51 53 54 56 58 59 61 62 64 66 68 69 71 72 72 72 72 72
24 23 24 26 27 27 27 25 23 23 23 23 23 22 20 20 20 19 20 23 24 25 25 26 27 27 27 27 28 28 28 28 29 29 29 30 30 31 31 32 32 33 34 35 35 36 37 37 38 38 39 39 40 40 41 41 42 42 43 44 45 46 48 49 50 51 52 54 56 58 59 61 63 65 66 68 69 70 71 72 72 71 71 70 69
27 26 27 28 29 30 30 29 28 27 27 27 28 28 27 26 26 26 27 29 30 31 30 30 30 30 30 30 29 29 30 30 31 31 31 31 32 32 32 32 33 33 34 34 34 35 35 36 37 38 38 39 39 40 41 41 42 43 44 46 47 49 50 51 52 54 55 57 59 61 63 65 66 68 69 70 71 71 70 70 69 68 67 66 64
30 29 29 30 30 30 30 30 28 28 28 28 28 29 30 30 30 31 31 32 33 33 33 32 31 31 31 32 32 32 32 32 33 33 33 33 32 32 32 33 33 33 33 34 35 35 36 37 37 38 38 39 40 41 42 43 44 45 47 48 50 51 53 54 55 57 59 60 62 64 66 67 68 69 70 70 71 70 70 68 67 65 63 61 60
30 29 27 28 30 30 29 29 28 28 29 30 30 30 31 33 34 35 35 35 34 33 33 33 33 33 33 34 34 34 34 34 34 34 34 33 32 32 32 33 33 34 35 36 37 37 37 37 38 38 39 40 41 43 44 45 46 47 48 50 51 53 55 57 58 60 62 63 65 66 67 68 69 69 70 69 69 68 67 66 65 63 61 59 58
30 28 25 25 28 32 33 32 31 30 31 32 32 32 32 34 35 36 36 36 35 35 35 35 36 35 34 34 33 33 34 33 33 33 33 33 33 33 34 34 35 35 36 36 36 36 37 38 38 40 41 42 43 44 45 46 47 49 50 52 53 55 57 59 61 62 63 64 65 66 67 68 68 68 67 67 66 65 64 63 62 60 59 58 58
28 27 25 25 28 33 35 35 33 33 33 34 34 33 33 34 36 35 35 35 36 36 37 36 36 35 34 33 32 32 32 32 32 32 32 32 33 34 34 35 35 35 35 35 36 37 38 39 40 41 42 43 45 46 47 48 49 51 52 54 56 57 59 60 61 63 64 64 65 65 65 65 64 63 63 62 61 60 59 59 58 58 58 58 58
24 23 24 26 28 31 34 34 33 33 33 33 34 34 34 36 36 36 36 36 36 37 37 36 36 35 34 33 32 31 31 31 31 31 31 31 32 33 33 34 35 35 36 37 38 38 39 40 41 42 43 45 46 47 49 50 52 54 55 57 58 59 60 61 61 62 62 63 62 61 61 59 59 58 57 57 57 57 57 57 57 56 56 55 54
26 25 26 29 32 33 33 34 34 34 34 34 34 34 35 36 37 36 36 36 37 37 37 36 35 34 33 32 32 31 31 31 31 31 31 32 32 33 34 34 35 35 36 37 38 39 40 41 42 44 45 47 48 50 51 53 54 55 56 57 57 58 58 58 58 58 58 57 57 56 55 55 54 54 54 55 55 55 54 53 52 51 49 49 48
31 31 31 32 35 36 36 36 36 36 37 37 37 37 37 37 38 37 37 36 36 36 35 33 32 32 31 31 32 32 32 32 32 32 32 33 33 34 34 35 35 35 37 38 39 40 42 43 44 46 48 49 50 51 52 53 53 54 54 54 54 54 54 54 53 53 52 52 52 52 52 52 52 52 53 52 51 49 48 46 45 45 45 45 45
35 35 34 34 36 38 40 41 41 40 39 38 37 37 38 38 38 38 37 36 35 34 33 32 31 31 31 32 32 32 32 32 32 32 32 33 33 34 35 35 36 37 38 39 40 42 43 44 45 47 48 49 50 50 50 51 51 51 51 51 50 50 50 49 49 49 49 48 48 49 49 49 49 49 47 46 44 43 42 42 42 43 44 44 45
39 40 39 37 37 38 40 42 44 44 44 43 40 38 37 37 36 36 35 34 33 33 32 31 31 31 31 31 31 31 30 30 31 31 32 33 35 35 35 36 37 38 39 40 41 42 43 44 45 46 47 47 47 48 48 48 47 47 46 46 46 46 46 46 46 46 46 46 46 46 46 46 44 43 41 41 40 40 40 40 41 41 42 42 42
37 40 41 41 39 37 37 38 39 41 41 41 40 38 37 36 34 33 32 32 33 32 31 30 30 30 31 31 30 30 30 30 32 33 34 35 36 36 36 37 38 39 40 40 41 42 43 44 44 44 45 45 45 45 44 43 43 42 42 42 43 43 43 43 43 43 43 44 44 43 42 41 39 38 38 38 39 39 39 39 40 40 40 40 38
35 36 37 39 39 38 36 36 36 37 37 37 37 36 35 35 34 33 32 32 33 32 31 30 30 30 30 30 30 30 31 32 33 34 35 36 36 36 37 37 38 39 40 40 41 41 42 42 43 43 43 42 42 41 40 39 39 39 39 39 40 40 40 40 41 41 42 41 41 40 38 37 36 36 36 37 38 38 38 38 38 38 37 35 32
35 35 35 36 37 37 37 36 36 36 36 36 36 35 35 34 34 34 33 34 34 33 32 31 31 31 32 32 32 32 33 33 34 35 36 36 37 37 37 38 38 39 40 40 40 41 41 41 41 40 39 38 37 37 36 36 36 36 36 36 36 37 38 39 40 40 40 39 38 36 35 35 34 34 35 36 36 37 37 37 36 35 32 29 26
35 34 34 34 35 36 36 36 36 36 35 35 35 35 35 35 35 35 35 35 35 34 33 33 33 33 33 34 34 35 35 35 36 36 36 37 37 38 38 38 38 39 39 39 39 39 39 38 37 36 35 34 33 33 32 32 32 33 33 34 35 36 37 38 38 38 37 36 35 34 33 33 33 34 34 34 35 36 36 35 33 30 26 23 22
33 32 32 33 34 34 35 35 35 35 35 35 35 35 35 35 35 35 35 35 35 35 34 34 34 35 35 35 36 36 36 36 37 36 36 37 37 37 37 37 38 38 38 38 37 37 36 35 34 33 31 30 29 29 29 29 30 31 31 33 34 35 36 36 36 35 34 33 32 31 32 32 32 32 32 33 34 34 34 32 28 24 21 20 21
30 30 31 31 32 32 33 33 34 34 34 34 35 35 35 35 34 35 35 35 35 35 35 34 35 35 36 36 36 36 36 36 36 36 36 36 36 36 36 36 36 36 35 35 34 33 32 31 29 28 27 26 26 27 27 28 28 29 30 32 34 35 35 34 34 32 31 30 30 29 30 30 30 31 31 31 32 32 30 28 23 20 19 19 20
29 29 30 31 32 31 32 32 33 34 34 34 34 35 35 35 35 35 35 36 36 36 35 35 35 35 35 36 36 36 36 36 35 35 35 35 35 35 35 35 34 34 33 32 31 29 28 26 25 24 24 25 25 26 26 27 27 28 30 32 33 33 33 32 31 30 29 28 28 28 28 29 29 29 30 30 30 29 27 24 21 19 19 19 20
28 29 30 31 32 32 33 33 33 34 34 34 35 35 36 36 35 35 36 36 36 36 35 35 35 35 35 35 36 35 35 35 35 35 34 34 34 34 33 33 32 31 29 28 27 25 24 23 22 22 23 24 25 25 25 26 26 27 29 31 32 32 32 31 30 29 28 27 27 27 27 28 28 28 28 29 29 27 25 23 21 20 20 20 20
25 26 27 29 30 31 32 32 33 33 34 34 34 34 35 35 35 35 35 36 36 36 35 35 35 35 35 35 35 35 34 34 33 33 33 33 32 32 31 30 29 27 26 25 23 22 22 21 21 22 23 24 24 24 25 25 25 26 28 30 31 31 31 30 29 28 27 27 27 27 27 27 28 28 28 28 27 26 24 22 21 20 20 21 21
23 24 25 25 26 27 28 29 30 31 32 32 32 33 33 33 33 33 34 34 34 34 34 34 33 33 33 33 33 33 32 32 32 32 31 31 30 29 28 27 26 24 23 22 22 21 21 21 21 22 23 23 24 24 24 24 24 25 27 29 30 31 30 30 29 28 27 26 26 26 26 27 27 27 27 27 27 26 24 22 21 21 21 21 22
23 24 25 25 25 26 26 27 27 28 29 30 30 30 31 31 31 31 31 31 31 31 31 31 31 31 32 31 31 31 31 31 31 30 30 29 28 27 25 24 24 23 22 22 21 21 21 21 21 22 23 23 24 24 24 24 24 25 26 28 29 30 30 30 29 28 27 26 26 26 25 26 26 26 26 27 26 26 24 22 21 21 21 21 22
22 24 25 26 26 26 26 27 26 27 27 28 28 29 29 29 29 29 29 29 29 29 29 29 29 30 30 30 30 30 31 30 29 29 28 27 26 25 24 24 23 23 22 22 21 21 21 21 21 22 23 23 24 24 24 24 24 25 25 27 28 29 30 30 29 29 28 27 26 25 25 25 25 25 25 25 26 25 24 22 21 21 21 21 21
20 22 23 25 26 26 27 27 27 26 26 26 27 27 28 28 28 28 28 28 28 28 28 28 28 29 29 29 29 29 29 29 28 28 27 26 25 25 25 24 24 24 23 23 22 22 21 22 22 23 23 23 24 24 24 25 25 25 25 26 27 29 29 30 30 29 29 28 27 26 25 25 24 24 24 24 25 24 24 22 21 20 20 20 19
19 20 21 23 24 25 26 26 26 26 26 26 26 26 27 27 28 27 27 27 27 28 28 28 28 28 28 28 28 28 28 27 27 26 26 26 26 26 25 25 25 24 24 23 23 23 22 22 23 23 23 24 24 25 25 25 25 25 25 25 27 28 29 29 29 29 29 28 27 26 26 25 24 24 24 24 24 24 23 23 22 21 20 19 19
Wind_Direction
222 222 231 239 240 244 248 248 249 250 247 242 240 236 229 227 222 216 221 225 221 220 223 224 227 230 233 238 241 243 243 241 239 234 232 234 234 235 237 238 240 242 243 243 242 243 244 246 247 246 243 241 242 245 249 249 248 248 245 239 236 236 243 253 260 266 266 261 258 259 261 263 264 263 261 259 258 258 259 260 262 263 265 266 267
220 225 232 235 238 243 251 254 256 256 250 241 242 242 233 229 227 225 229 231 226 225 226 226 227 229 233 238 241 243 241 238 239 238 236 237 239 240 239 240 241 243 245 247 246 246 247 247 245 242 240 240 242 246 250 251 251 253 253 251 249 248 251 257 263 268 270 266 262 259 258 259 261 262 261 260 260 260 262 263 265 267 268 268 268
220 228 234 238 242 244 251 256 252 248 246 241 241 241 233 227 228 229 232 234 231 231 231 229 228 228 232 236 240 242 239 238 241 241 240 241 243 243 241 240 241 242 246 249 250 251 251 250 247 246 246 247 249 250 250 251 254 256 258 259 258 256 254 254 257 260 263 264 264 263 259 258 261 263 263 263 265 266 267 268 269 270 270 270 270
223 227 236 245 249 250 257 263 251 236 236 240 237 237 231 224 225 231 235 233 231 233 234 230 226 226 230 233 236 238 239 239 240 241 242 243 244 244 243 242 242 242 245 249 252 255 255 253 251 251 253 254 255 256 253 253 257 260 259 258 259 260 259 254 251 252 255 258 261 264 263 260 261 265 266 266 268 269 270 270 270 271 272 273 273
248 243 252 258 256 255 261 269 262 242 237 237 233 233 227 220 224 232 233 229 230 233 234 230 225 224 227 232 234 236 238 239 239 241 244 244 244 244 243 242 243 242 245 250 254 257 257 256 256 255 255 254 255 256 254 257 262 264 262 260 264 269 270 264 258 254 255 257 259 263 266 264 263 265 267 268 267 268 268 269 270 272 272 272 272
268 257 259 258 256 256 257 262 264 252 241 235 231 229 221 218 227 232 227 225 228 233 235 231 226 222 225 232 234 236 239 238 237 241 244 243 244 244 241 241 243 244 248 252 256 261 262 259 257 256 256 256 256 258 259 263 268 269 268 268 269 273 275 273 267 261 259 259 259 261 265 267 268 269 269 270 269 269 269 269 270 270 268 267 268
280 271 267 263 260 258 252 253 258 254 243 232 229 225 217 220 228 225 220 224 228 232 236 234 228 225 228 234 236 238 241 238 236 241 244 243 243 243 241 241 242 246 250 252 258 264 261 257 257 259 262 264 264 265 267 268 269 271 272 272 272 272 274 273 270 265 261 259 260 262 263 266 270 272 272 271 271 270 269 270 269 268 266 267 270
284 283 281 274 266 258 250 248 252 252 242 230 225 218 213 219 225 219 219 225 227 231 235 233 230 229 230 233 236 240 241 237 237 242 244 244 243 242 242 243 244 247 249 249 250 249 241 248 263 271 270 270 271 271 273 272 270 271 272 274 275 275 274 273 272 270 266 261 260 261 262 261 262 265 267 268 268 270 271 272 271 270 271 273 277
281 281 277 272 266 257 251 248 249 251 240 224 217 211 210 219 221 217 221 227 230 234 236 234 233 230 227 229 234 239 240 238 239 242 242 242 241 241 242 244 246 249 249 247 245 240 237 248 264 271 269 270 273 274 275 274 272 272 270 269 269 268 268 269 269 270 271 269 267 266 266 263 260 261 262 264 267 270 273 275 276 277 279 280 281
280 278 272 266 261 252 248 249 251 247 230 215 210 207 211 221 223 219 224 230 234 238 237 237 234 227 225 229 232 235 239 240 239 239 238 239 241 241 244 247 251 253 254 253 251 248 247 253 261 265 265 268 270 272 274 274 274 274 272 271 271 270 269 268 267 268 269 271 272 272 271 270 268 267 266 265 266 269 271 273 276 280 283 285 287
281 278 269 261 259 256 253 254 253 240 220 211 211 210 214 222 225 223 227 232 234 236 236 235 229 222 226 232 231 231 238 243 242 237 235 239 243 245 247 250 255 258 259 259 257 255 255 258 264 268 270 273 274 275 277 278 279 279 277 278 279 279 278 276 274 272 270 269 270 270 271 272 273 273 272 271 271 273 274 275 277 283 286 288 289
275 268 257 250 255 262 264 259 250 233 218 214 213 214 217 220 220 224 228 229 232 234 235 233 225 220 226 232 231 232 238 243 242 237 236 241 245 247 249 252 257 260 261 262 261 260 261 263 267 271 272 274 274 274 275 277 279 280 280 279 279 279 279 279 278 278 277 275 274 274 275 276 277 277 277 277 277 277 278 279 281 284 286 288 288
266 254 246 245 255 260 259 256 242 226 220 218 213 209 212 215 216 223 228 229 233 237 236 234 229 224 225 230 233 235 237 240 240 239 241 245 246 248 251 253 256 259 261 263 264 265 265 266 267 268 269 271 273 274 275 276 277 278 279 280 279 279 277 277 277 277 277 277 277 277 278 279 280 280 280 281 280 279 280 282 284 286 288 289 289
279 264 240 234 237 241 242 241 233 223 219 217 211 208 213 218 221 226 231 232 236 240 239 236 231 224 222 228 234 235 236 239 241 242 244 246 248 249 250 253 257 261 264 266 267 267 267 265 265 264 266 268 270 273 274 275 275 276 278 278 278 277 275 273 274 275 275 276 277 279 280 281 281 281 281 282 283 284 285 286 288 290 291 290 289
287 270 239 213 201 216 235 236 221 217 220 220 214 214 219 224 227 232 236 237 237 239 239 237 232 224 221 228 235 236 236 240 243 245 246 246 248 249 251 255 261 267 271 271 270 269 267 266 265 265 265 265 266 269 271 273 274 275 275 275 274 273 272 273 275 277 278 280 281 282 282 281 281 282 283 284 285 287 288 288 288 287 287 287 289
286 263 251 230 206 210 222 225 219 217 222 224 219 217 221 226 232 237 240 240 238 236 237 238 234 228 225 231 237 237 237 240 243 247 248 248 248 250 253 257 259 262 265 267 268 269 269 269 270 270 269 269 269 272 274 275 276 276 274 272 270 267 267 272 277 279 279 280 281 281 281 281 282 283 285 286 287 287 287 286 286 284 284 286 288
288 267 256 252 243 226 211 210 217 218 215 218 219 220 224 229 234 239 239 240 239 236 237 238 234 229 228 230 235 239 242 243 246 249 250 249 248 249 253 257 260 262 264 265 266 268 270 272 275 275 275 275 275 276 277 278 278 277 275 274 271 268 267 271 277 280 280 280 281 282 283 284 285 286 287 287 287 287 286 286 287 286 286 287 286
288 278 262 256 259 240 207 200 211 214 212 218 221 224 232 237 240 243 243 242 241 237 235 233 229 226 226 228 233 240 244 246 247 249 251 252 252 254 257 261 265 268 269 269 269 270 271 272 272 271 270 271 272 273 273 273 271 270 271 273 274 273 272 274 278 281 283 285 285 286 287 287 287 287 287 287 287 287 288 288 288 288 287 287 285
284 285 274 250 241 229 204 197 206 215 220 224 223 226 235 238 239 243 245 244 241 234 228 224 221 221 224 228 233 238 240 242 243 244 246 249 253 256 259 262 265 268 270 271 271 270 269 266 264 262 262 263 264 264 263 262 261 264 268 271 273 274 275 277 280 284 286 287 287 287 287 287 287 287 287 287 287 287 288 287 287 287 287 287 287
283 284 278 254 242 234 213 199 198 209 219 223 226 230 232 231 233 237 237 234 229 221 216 216 219 224 228 231 234 237 240 242 242 242 244 247 251 254 256 259 261 264 267 268 268 266 264 262 261 260 261 261 261 261 260 260 263 267 271 274 276 276 277 279 281 283 285 285 286 287 287 287 287 287 286 286 287 287 287 287 287 287 287 288 288
280 279 276 263 255 248 227 209 204 208 214 218 223 227 228 227 228 225 218 213 211 211 212 217 223 228 232 235 236 236 236 237 238 239 243 246 250 253 254 256 259 262 265 267 268 267 266 265 263 263 263 263 263 263 263 265 269 272 274 276 277 278 278 279 280 280 281 283 284 285 285 286 286 286 286 286 287 287 288 288 288 288 288 289 288
274 274 274 267 259 254 239 222 213 213 218 222 224 224 222 219 218 215 210 209 212 215 218 223 228 231 233 235 237 237 237 239 241 244 246 248 250 252 254 257 260 263 266 267 268 267 267 266 265 265 265 265 265 266 267 269 271 273 274 275 276 277 278 279 280 281 282 283 284 284 285 286 286 287 287 288 288 289 289 289 289 289 289 289 289
268 270 273 270 260 253 245 236 229 225 226 223 214 207 206 210 215 217 218 219 221 225 230 232 232 234 237 239 242 243 243 245 247 249 250 250 251 253 256 259 261 263 264 265 266 267 267 268 268 269 269 270 270 271 272 272 273 274 275 276 278 279 280 281 282 283 284 285 286 286 287 288 288 289 289 289 289 289 289 289 289 289 289 289 288
264 266 269 268 260 249 240 239 244 249 249 239 223 212 213 223 232 234 234 234 232 231 232 233 233 237 242 247 248 247 247 247 249 252 253 253 255 257 259 260 261 263 264 266 267 268 269 270 271 271 272 272 272 271 271 271 273 275 278 280 282 283 283 284 284 285 285 286 287 288 289 289 289 289 289 289 289 289 289 289 289 289 289 289 289
261 262 262 261 255 246 239 240 247 255 256 249 240 239 242 247 248 245 241 237 230 222 219 222 227 230 231 234 240 245 248 249 251 254 256 257 258 258 259 261 262 264 266 268 270 271 272 273 273 273 273 272 272 271 272 273 276 279 281 283 284 284 284 284 284 285 285 286 287 288 288 289 289 289 290 290 290 290 290 291 291 291 291 291 291
255 252 251 253 253 250 251 254 256 256 254 248 243 242 243 242 241 234 225 223 225 227 227 229 232 233 231 232 237 245 250 252 254 257 259 260 261 261 261 262 263 264 265 266 267 268 270 271 272 272 272 272 273 274 275 277 279 281 282 283 283 283 284 284 285 286 287 288 289 289 290 290 291 291 291 291 292 292 292 291 292 292 292 292 292
255 250 249 252 255 256 258 259 257 254 253 252 251 250 245 240 237 232 227 229 234 238 239 241 243 244 244 243 244 247 250 254 257 259 261 262 263 263 263 263 263 264 265 265 266 267 268 269 270 270 271 272 274 275 277 279 281 281 282 283 284 285 286 288 289 290 290 290 291 291 291 291 291 291 291 291 292 292 292 292 293 293 293 294 294
257 254 251 251 252 255 258 259 256 253 253 254 254 254 253 250 247 244 241 241 242 243 245 246 248 249 251 252 252 253 254 256 258 260 261 263 264 265 265 266 267 268 268 269 269 270 270 271 272 273 274 276 277 279 281 282 283 284 286 287 288 289 290 290 291 291 291 291 291 291 291 291 291 291 291 292 292 293 293 294 295 295 295 295 294
259 257 255 253 251 251 252 254 255 255 254 254 254 252 250 248 246 244 242 242 243 244 246 248 250 252 254 255 257 258 258 259 259 260 261 262 264 265 267 269 270 270 271 271 271 272 273 274 275 277 279 280 282 283 284 285 286 288 289 290 290 291 291 291 291 291 291 291 291 291 291 291 291 291 292 292 293 294 294 295 295 295 295 295 294
259 259 259 259 259 258 258 259 261 260 257 255 254 252 249 247 245 245 245 246 246 247 249 252 255 257 258 259 261 262 263 263 263 263 263 263 264 265 266 267 268 269 270 271 272 274 275 277 279 281 283 284 284 285 286 287 288 289 289 290 291 291 291 291 291 290 290 290 290 290 290 291 291 292 293 293 294 295 295 295 295 295 294 293 292
254 253 250 248 250 255 258 260 262 263 259 256 254 252 250 249 250 251 251 251 251 251 254 257 260 262 263 264 264 264 265 265 265 265 265 265 265 266 267 268 269 271 273 275 277 278 280 282 283 284 284 285 285 286 287 287 288 288 289 290 290 291 291 291 291 291 291 290 291 291 291 292 293 293 294 294 294 295 294 294 294 293 293 292 292
252 249 244 239 239 244 248 251 255 259 259 257 256 253 250 251 254 256 256 256 256 256 257 259 261 262 261 260 258 257 257 258 259 261 263 264 265 267 269 272 274 276 278 280 281 282 282 283 284 284 285 286 287 287 288 288 288 288 289 289 290 290 291 291 291 291 291 291 292 292 292 293 293 293 293 293 293 293 293 293 293 293 293 293 293
254 243 236 235 240 244 246 247 248 247 245 244 246 246 245 246 249 251 253 253 254 256 257 257 257 256 256 255 254 254 255 257 259 262 263 265 267 269 271 274 276 277 279 280 281 282 282 283 284 286 286 287 288 288 288 289 289 289 288 288 288 288 289 289 290 291 291 291 292 292 293 293 293 293 293 293 293 293 294 294 294 294 294 294 294
254 246 236 233 237 241 242 242 242 240 238 238 239 241 242 242 244 246 247 250 252 253 254 254 254 254 255 255 256 258 259 261 262 264 265 266 268 270 272 273 275 277 279 280 281 283 284 285 285 286 286 287 287 288 288 288 288 288 288 288 288 288 288 289 290 291 291 292 293 293 294 294 295 295 295 295 295 295 296 296 296 296 296 296 295
246 245 241 238 240 242 243 243 244 246 247 247 248 249 250 250 249 249 250 253 254 255 255 254 254 254 255 256 257 259 260 262 264 266 268 269 270 272 273 275 276 278 279 280 282 282 283 283 283 284 284 285 286 286 287 287 287 288 288 288 289 290 290 291 292 293 294 294 295 295 296 296 296 296 297 297 297 297 298 298 298 298 298 297 297
243 242 241 239 240 243 246 249 251 252 253 253 252 251 250 250 251 252 254 256 256 255 254 254 254 254 255 256 258 260 262 264 266 268 270 271 272 273 275 276 277 277 278 278 279 279 280 281 282 283 283 284 285 286 286 287 288 289 290 291 291 292 293 294 294 295 295 296 296 297 297 297 297 297 297 298 298 299 299 300 300 300 300 299 299
244 245 245 245 244 243 245 247 250 252 254 255 255 255 254 254 254 255 256 256 254 253 253 253 255 256 258 259 261 263 265 267 268 269 270 271 272 273 274 275 276 276 276 277 277 278 280 281 282 283 284 285 287 288 289 290 291 292 292 293 293 294 294 295 295 296 297 297 297 297 297 297 297 297 298 298 299 300 300 301 301 301 301 301 301
245 245 246 248 250 250 249 249 250 251 252 254 256 258 259 259 259 258 257 255 254 253 254 256 257 259 260 261 262 263 265 266 267 267 267 268 269 270 272 273 274 275 277 278 279 280 281 282 284 285 287 288 290 291 292 292 293 293 293 293 293 294 295 296 297 298 299 299 299 298 298 298 297 297 298 299 300 301 302 302 302 302 302 302 302
252 251 249 249 250 251 251 251 251 252 254 255 257 259 260 260 260 259 258 257 257 258 260 261 261 260 261 261 262 263 264 265 265 265 266 267 268 269 271 272 274 276 278 279 281 282 283 285 287 288 289 290 291 291 291 291 291 291 292 293 295 296 298 299 300 301 301 301 301 300 300 300 299 300 300 301 302 303 303 304 304 304 303 303 303
259 260 259 256 254 254 254 253 254 254 255 256 256 256 257 257 258 258 257 258 259 260 261 262 262 263 263 264 265 265 265 265 265 265 267 268 269 270 271 273 275 276 278 280 282 284 285 287 288 289 289 290 289 289 290 290 291 293 295 297 299 300 302 303 304 304 304 303 302 302 302 302 302 303 303 304 305 306 306 307 307 305 303 303 305
262 263 262 261 259 258 258 258 258 258 258 258 257 256 255 255 255 256 256 257 258 259 260 261 261 262 263 263 263 263 263 263 263 264 266 268 269 271 272 273 275 277 278 280 282 284 286 287 287 287 287 287 287 288 290 292 295 298 300 302 304 306 308 308 308 307 306 305 304 304 305 305 305 306 307 307 308 309 309 310 309 307 304 305 308
263 262 261 261 260 260 260 260 260 261 260 260 260 259 258 257 257 257 257 257 258 260 260 261 261 261 261 261 261 261 261 261 262 263 265 266 269 271 273 274 276 277 279 281 282 283 284 284 285 284 284 285 287 290 293 296 300 303 305 308 310 311 311 311 310 308 307 306 306 306 307 307 308 309 310 310 311 312 312 312 310 306 304 305 308
262 262 261 260 260 260 260 260 260 261 261 261 261 261 261 260 259 258 258 259 259 260 260 260 261 261 262 261 261 261 262 263 264 265 266 267 269 271 274 276 277 278 279 280 280 281 281 281 281 282 284 287 291 294 297 301 304 307 310 312 314 314 314 313 311 309 308 307 307 308 308 309 311 312 313 314 315 315 314 312 308 304 302 304 306
260 260 260 260 260 260 259 258 258 258 259 259 259 260 260 259 258 258 257 257 257 257 258 258 258 259 260 261 261 262 263 264 265 266 267 269 271 272 274 275 276 277 277 277 277 277 277 277 278 281 286 290 294 297 301 305 308 311 314 316 317 317 316 315 313 311 310 309 309 310 311 313 315 316 317 318 319 319 316 311 305 300 299 301 306
260 259 258 260 260 260 259 258 258 257 257 257 256 257 257 258 257 256 255 256 256 256 256 256 256 257 258 260 261 261 263 264 265 266 267 269 270 271 272 272 273 273 274 273 273 273 273 275 279 283 288 292 295 299 303 306 310 313 317 320 321 321 320 318 316 314 313 312 312 313 314 316 318 320 321 322 324 323 318 310 303 298 297 300 305
269 266 264 264 264 264 263 262 261 260 259 258 257 257 257 257 257 256 255 255 255 255 255 255 256 257 258 260 261 262 263 263 264 265 265 267 268 268 269 269 269 269 269 268 267 268 271 276 281 286 289 293 296 300 303 307 310 314 319 323 325 324 323 322 320 318 317 316 315 315 316 318 321 323 324 326 327 326 321 312 304 299 298 300 304
278 275 272 270 269 269 268 267 266 265 263 262 261 260 259 259 259 258 257 257 257 256 256 255 256 257 258 259 260 261 261 262 262 263 264 264 265 265 265 265 264 262 261 261 262 266 271 276 282 286 290 294 298 301 303 306 309 313 319 324 327 328 327 326 325 323 320 318 317 317 318 320 323 325 327 328 329 329 326 319 311 306 303 304 306
280 280 279 277 274 273 272 271 269 269 268 267 265 263 262 261 260 260 259 259 258 258 257 256 256 256 257 257 258 258 258 259 260 261 261 262 262 262 260 258 256 255 255 257 260 264 270 276 281 286 291 296 299 301 303 304 307 311 317 323 327 329 329 329 328 326 324 322 321 320 320 321 323 326 329 330 331 331 329 324 318 313 310 309 309
284 282 282 281 279 277 276 275 273 272 271 271 270 268 267 265 263 262 261 260 259 259 258 257 256 255 255 255 256 256 256 257 258 259 259 259 258 256 253 251 250 251 253 255 258 263 268 274 280 286 291 297 300 302 302 303 305 309 314 320 325 328 330 331 330 329 328 326 324 322 321 322 323 326 328 330 331 332 331 327 322 317 314 312 311
297 291 287 284 282 280 279 278 277 275 273 271 270 270 269 268 266 264 263 262 260 259 257 256 254 253 253 253 254 254 255 256 257 257 257 256 253 249 247 246 247 249 251 254 258 262 268 273 279 285 291 297 301 302 303 302 303 306 311 318 323 326 330 331 332 332 331 329 327 325 324 323 323 324 327 330 331 332 332 330 326 322 319 317 314
311 305 298 292 287 284 282 280 278 276 274 272 269 268 267 267 266 264 263 262 260 258 256 255 253 252 251 251 251 252 253 254 254 254 253 251 248 245 243 244 246 248 251 254 258 262 267 273 278 284 290 296 300 302 303 302 302 304 309 314 319 324 328 331 333 333 332 331 329 328 326 325 324 324 326 328 331 332 332 331 329 326 324 321 318
Height
5745 5747 5748 5749 5750 5752 5753 5755 5755 5756 5756 5756 5757 5757 5758 5759 5760 5761 5762 5762 5763 5764 5765 5766 5768 5768 5769 5771 5772 5773 5775 5776 5777 5778 5780 5780 5781 5782 5782 5783 5783 5784 5784 5785 5785 5785 5786 5786 5786 5787 5787 5788 5788 5789 5789 5790 5790 5791 5792 5792 5792 5792 5791 5790 5789 5788 5789 5790 5789 5789 5789 5789 5788 5788 5788 5788 5788 5787 5787 5787 5787 5787 5787 5787 5786
5744 5746 5746 5746 5748 5750 5751 5752 5753 5754 5754 5754 5755 5756 5757 5758 5759 5759 5760 5760 5761 5762 5763 5764 5765 5766 5768 5769 5770 5771 5773 5774 5775 5776 5777 5778 5779 5780 5780 5781 5781 5782 5782 5782 5783 5783 5783 5784 5784 5785 5785 5786 5786 5787 5787 5787 5788 5788 5789 5789 5790 5790 5790 5789 5788 5787 5786 5787 5787 5787 5787 5787 5786 5786 5786 5785 5785 5785 5785 5784 5784 5784 5784 5784 5783
5742 5743 5744 5744 5746 5748 5749 5749 5749 5750 5751 5752 5753 5754 5754 5756 5757 5757 5757 5758 5759 5761 5762 5762 5763 5764 5766 5767 5768 5769 5771 5772 5773 5774 5775 5776 5777 5777 5778 5778 5779 5779 5780 5780 5780 5780 5781 5781 5782 5783 5783 5784 5784 5784 5785 5785 5785 5785 5786 5786 5787 5788 5788 5788 5787 5786 5785 5784 5784 5784 5784 5784 5784 5783 5783 5783 5783 5782 5782 5782 5781 5781 5781 5781 5780
5738 5740 5741 5743 5744 5746 5746 5746 5745 5745 5747 5749 5751 5751 5752 5753 5754 5754 5755 5756 5757 5759 5760 5760 5761 5763 5764 5765 5766 5768 5768 5770 5771 5772 5773 5774 5775 5775 5776 5776 5777 5777 5777 5777 5778 5778 5779 5779 5780 5780 5781 5781 5782 5782 5782 5782 5782 5782 5783 5784 5784 5784 5785 5785 5785 5784 5783 5783 5782 5781 5782 5782 5781 5781 5780 5780 5780 5779 5779 5779 5779 5779 5778 5778 5778
5738 5740 5741 5742 5742 5743 5744 5744 5743 5743 5744 5746 5747 5748 5749 5750 5751 5752 5753 5754 5755 5756 5757 5758 5759 5760 5762 5763 5765 5766 5767 5768 5769 5770 5771 5772 5772 5773 5773 5774 5774 5775 5775 5775 5776 5777 5777 5777 5777 5778 5778 5779 5779 5779 5779 5779 5779 5779 5780 5781 5781 5780 5781 5782 5782 5781 5781 5780 5780 5779 5778 5778 5778 5778 5778 5777 5777 5777 5777 5777 5776 5776 5775 5775 5774
5738 5739 5739 5739 5740 5740 5741 5742 5742 5742 5741 5742 5743 5745 5746 5747 5748 5750 5751 5751 5752 5753 5754 5755 5756 5758 5760 5761 5763 5764 5765 5766 5767 5767 5768 5769 5770 5770 5771 5772 5772 5773 5773 5774 5775 5775 5775 5775 5775 5775 5775 5776 5776 5776 5776 5776 5776 5776 5776 5777 5778 5777 5777 5778 5778 5778 5778 5777 5777 5776 5776 5775 5775 5775 5775 5775 5774 5774 5773 5773 5773 5772 5772 5771 5771
5734 5734 5735 5736 5736 5737 5737 5738 5739 5739 5739 5739 5740 5742 5744 5745 5746 5747 5748 5748 5749 5750 5751 5753 5754 5756 5758 5759 5761 5762 5763 5764 5764 5765 5766 5767 5767 5768 5769 5769 5770 5771 5771 5772 5773 5772 5772 5772 5772 5773 5773 5773 5774 5773 5773 5773 5773 5773 5773 5774 5774 5774 5774 5774 5775 5775 5775 5774 5774 5773 5773 5773 5772 5771 5771 5771 5770 5770 5770 5770 5769 5769 5768 5768 5767
5730 5730 5731 5731 5732 5733 5734 5735 5735 5735 5735 5736 5738 5740 5742 5742 5743 5745 5745 5745 5747 5748 5750 5751 5752 5754 5755 5757 5758 5759 5760 5761 5762 5762 5763 5764 5765 5766 5766 5767 5768 5769 5769 5770 5771 5770 5770 5770 5770 5771 5771 5771 5771 5771 5771 5771 5770 5770 5771 5771 5771 5771 5771 5771 5771 5771 5771 5771 5771 5771 5770 5770 5770 5769 5769 5768 5767 5766 5766 5767 5766 5765 5765 5765 5765
5727 5727 5727 5727 5728 5730 5731 5731 5731 5732 5732 5733 5735 5738 5739 5740 5741 5743 5742 5743 5745 5747 5748 5749 5750 5752 5753 5754 5755 5756 5757 5758 5759 5760 5761 5761 5763 5763 5764 5765 5766 5766 5767 5768 5769 5769 5769 5769 5769 5769 5769 5768 5768 5768 5768 5768 5768 5768 5768 5768 5769 5769 5769 5769 5768 5768 5768 5768 5768 5768 5768 5768 5767 5767 5766 5766 5765 5764 5763 5763 5762 5762 5762 5762 5761
5724 5724 5724 5724 5725 5726 5728 5727 5728 5729 5729 5730 5733 5735 5736 5737 5739 5740 5740 5741 5744 5745 5745 5746 5748 5749 5751 5752 5753 5754 5755 5756 5757 5758 5758 5759 5760 5761 5761 5762 5763 5764 5764 5765 5766 5767 5767 5767 5766 5766 5765 5765 5765 5764 5764 5764 5764 5765 5765 5765 5765 5766 5766 5766 5765 5765 5765 5765 5765 5764 5764 5764 5764 5763 5763 5762 5762 5761 5761 5760 5759 5758 5758 5758 5757
5721 5721 5722 5722 5722 5723 5724 5724 5725 5726 5727 5728 5730 5731 5733 5735 5736 5737 5738 5740 5742 5742 5742 5744 5745 5747 5748 5749 5750 5751 5752 5753 5754 5755 5755 5756 5757 5758 5759 5759 5760 5760 5761 5762 5762 5763 5763 5763 5763 5762 5762 5762 5762 5761 5761 5761 5761 5762 5762 5762 5762 5762 5761 5761 5761 5761 5761 5761 5761 5761 5760 5760 5760 5760 5759 5759 5758 5758 5757 5757 5757 5756 5755 5754 5753
5717 5718 5719 5720 5720 5720 5720 5721 5722 5723 5724 5726 5727 5729 5730 5732 5734 5735 5736 5738 5738 5739 5739 5741 5742 5744 5746 5747 5748 5749 5750 5751 5751 5752 5753 5753 5754 5755 5756 5756 5757 5757 5758 5758 5758 5759 5759 5760 5760 5759 5759 5759 5758 5758 5758 5758 5759 5759 5759 5759 5758 5758 5757 5756 5756 5756 5756 5756 5757 5757 5756 5756 5756 5755 5755 5755 5754 5754 5753 5753 5753 5753 5751 5750 5750
5714 5715 5715 5717 5718 5718 5718 5719 5719 5720 5721 5723 5724 5726 5728 5730 5731 5732 5733 5735 5735 5736 5737 5738 5739 5741 5743 5744 5745 5746 5747 5748 5748 5749 5750 5750 5751 5752 5753 5754 5754 5754 5755 5755 5755 5755 5756 5757 5756 5756 5756 5756 5755 5755 5755 5755 5755 5756 5756 5755 5755 5754 5753 5753 5753 5753 5752 5752 5752 5752 5752 5752 5751 5751 5750 5750 5750 5749 5749 5749 5748 5748 5747 5746 5746
5712 5712 5713 5714 5716 5716 5717 5718 5718 5718 5720 5721 5722 5724 5725 5727 5728 5729 5730 5731 5732 5733 5734 5735 5736 5738 5740 5741 5742 5743 5743 5744 5745 5746 5747 5748 5748 5749 5750 5750 5751 5751 5752 5752 5752 5752 5753 5753 5753 5753 5753 5753 5752 5752 5752 5752 5752 5752 5752 5751 5751 5750 5750 5750 5749 5749 5749 5749 5749 5749 5748 5748 5748 5747 5747 5746 5745 5745 5744 5744 5744 5743 5741 5740 5740
5711 5712 5712 5712 5714 5715 5715 5716 5717 5718 5719 5720 5722 5723 5724 5724 5725 5727 5727 5728 5729 5730 5731 5732 5733 5735 5736 5737 5738 5739 5740 5741 5742 5743 5744 5745 5745 5746 5747 5747 5748 5748 5749 5749 5749 5749 5749 5749 5749 5749 5749 5749 5749 5749 5749 5749 5748 5748 5748 5748 5747 5747 5747 5746 5746 5746 5745 5745 5745 5745 5744 5744 5744 5743 5743 5743 5742 5741 5739 5739 5740 5740 5736 5734 5734
5709 5710 5710 5710 5711 5712 5713 5714 5715 5716 5717 5718 5720 5721 5722 5722 5723 5724 5725 5726 5727 5727 5728 5729 5731 5732 5734 5734 5735 5736 5737 5738 5739 5740 5741 5742 5743 5743 5744 5744 5744 5745 5745 5745 5746 5746 5746 5746 5746 5746 5746 5746 5746 5746 5746 5745 5745 5745 5744 5744 5744 5744 5744 5744 5744 5743 5742 5742 5741 5741 5740 5740 5740 5739 5739 5738 5738 5737 5735 5734 5735 5734 5732 5730 5729
5708 5708 5708 5708 5709 5709 5709 5711 5712 5713 5715 5716 5718 5718 5719 5719 5720 5721 5722 5723 5724 5725 5725 5726 5728 5730 5731 5732 5733 5734 5735 5735 5736 5737 5738 5739 5740 5740 5740 5741 5741 5741 5741 5741 5741 5742 5742 5742 5743 5743 5743 5743 5742 5742 5742 5742 5742 5741 5741 5740 5740 5741 5741 5741 5740 5740 5739 5738 5738 5737 5737 5736 5735 5735 5734 5733 5732 5732 5730 5729 5728 5726 5725 5724 5723
5707 5706 5706 5707 5708 5707 5707 5708 5710 5711 5713 5714 5715 5716 5717 5717 5718 5718 5719 5720 5721 5722 5723 5724 5725 5727 5728 5730 5731 5732 5733 5733 5734 5734 5735 5736 5736 5737 5737 5737 5737 5737 5737 5737 5737 5737 5738 5738 5739 5739 5739 5739 5739 5739 5738 5738 5738 5738 5738 5737 5737 5737 5737 5737 5736 5735 5734 5734 5734 5733 5732 5732 5731 5730 5729 5728 5727 5725 5724 5722 5720 5718 5717 5715 5715
5706 5705 5705 5705 5706 5706 5706 5707 5709 5710 5711 5712 5713 5715 5715 5714 5715 5716 5716 5717 5718 5719 5720 5721 5723 5724 5726 5727 5728 5729 5729 5730 5731 5732 5732 5732 5733 5733 5733 5733 5733 5733 5733 5732 5732 5732 5733 5733 5734 5734 5734 5735 5735 5735 5735 5735 5735 5736 5735 5735 5734 5733 5733 5733 5731 5730 5729 5729 5728 5728 5727 5726 5725 5724 5722 5721 5720 5719 5718 5716 5714 5712 5709 5707 5706
5705 5704 5703 5703 5704 5705 5706 5706 5707 5708 5709 5709 5710 5711 5711 5712 5713 5713 5713 5714 5715 5716 5717 5718 5720 5721 5722 5723 5724 5725 5726 5727 5728 5728 5729 5729 5729 5730 5730 5730 5730 5729 5729 5728 5728 5728 5729 5729 5730 5730 5731 5731 5731 5732 5732 5732 5732 5732 5732 5731 5731 5730 5729 5728 5727 5725 5724 5723 5722 5722 5721 5720 5719 5717 5716 5715 5714 5712 5711 5709 5707 5705 5702 5700 5698
5703 5703 5703 5702 5702 5703 5704 5705 5705 5706 5706 5706 5707 5708 5709 5710 5711 5711 5711 5711 5713 5714 5715 5716 5717 5718 5719 5720 5721 5722 5723 5723 5724 5725 5725 5725 5725 5725 5726 5726 5726 5726 5726 5725 5725 5725 5726 5726 5727 5728 5728 5728 5728 5729 5729 5729 5729 5729 5728 5727 5726 5725 5724 5723 5722 5721 5719 5718 5717 5716 5715 5714 5713 5711 5709 5708 5706 5705 5704 5702 5700 5697 5695 5692 5690
5701 5701 5701 5701 5701 5702 5703 5703 5703 5703 5704 5704 5704 5705 5707 5708 5708 5708 5709 5710 5711 5712 5713 5714 5715 5716 5716 5717 5718 5718 5719 5720 5720 5721 5721 5722 5722 5722 5722 5723 5723 5722 5722 5722 5722 5722 5723 5723 5724 5725 5725 5725 5725 5726 5726 5725 5725 5724 5723 5722 5721 5720 5719 5718 5717 5715 5714 5713 5711 5710 5708 5707 5706 5705 5703 5701 5699 5698 5696 5694 5692 5689 5687 5684 5681
5699 5699 5699 5700 5700 5700 5701 5701 5701 5701 5702 5702 5702 5703 5704 5705 5705 5705 5706 5707 5709 5710 5711 5712 5713 5713 5713 5714 5714 5715 5716 5716 5716 5717 5718 5718 5719 5719 5719 5719 5719 5719 5719 5719 5719 5719 5719 5720 5720 5721 5721 5721 5722 5721 5721 5720 5719 5718 5717 5716 5715 5715 5714 5713 5711 5710 5708 5706 5705 5703 5701 5700 5699 5697 5695 5693 5691 5689 5687 5685 5683 5681 5678 5675 5672
5696 5696 5697 5697 5698 5698 5699 5699 5699 5699 5700 5700 5700 5701 5701 5702 5703 5703 5704 5705 5706 5708 5709 5710 5710 5710 5710 5711 5711 5712 5712 5713 5713 5713 5714 5715 5715 5716 5716 5715 5715 5715 5715 5715 5715 5715 5715 5716 5717 5717 5717 5717 5717 5716 5715 5714 5713 5712 5712 5711 5710 5709 5708 5707 5705 5703 5702 5700 5698 5696 5694 5692 5691 5689 5687 5685 5683 5681 5678 5676 5674 5671 5668 5665 5662
5693 5694 5694 5694 5695 5695 5696 5696 5697 5697 5698 5698 5698 5699 5699 5700 5701 5701 5702 5703 5704 5705 5706 5706 5706 5707 5707 5707 5707 5707 5708 5709 5710 5711 5711 5712 5712 5712 5712 5712 5712 5712 5712 5712 5712 5711 5711 5712 5712 5712 5712 5712 5711 5710 5710 5709 5708 5707 5707 5705 5704 5703 5701 5700 5698 5697 5695 5694 5692 5690 5688 5685 5683 5681 5679 5677 5674 5672 5669 5666 5664 5661 5658 5654 5651
5690 5691 5691 5691 5691 5692 5693 5693 5694 5695 5695 5696 5696 5697 5697 5698 5698 5699 5700 5700 5701 5701 5701 5702 5703 5703 5704 5704 5704 5704 5705 5706 5706 5707 5707 5707 5708 5708 5708 5708 5708 5708 5708 5708 5708 5707 5707 5707 5707 5707 5707 5706 5705 5705 5704 5704 5703 5702 5701 5699 5698 5696 5695 5693 5692 5691 5689 5687 5685 5683 5680 5678 5675 5673 5670 5667 5664 5662 5659 5656 5653 5650 5647 5644 5641
5687 5688 5688 5688 5688 5688 5689 5690 5691 5692 5692 5693 5694 5694 5695 5696 5696 5697 5698 5698 5698 5698 5697 5698 5699 5699 5700 5700 5701 5702 5702 5702 5702 5703 5703 5703 5703 5704 5704 5704 5704 5703 5703 5703 5703 5703 5702 5702 5702 5702 5701 5701 5700 5700 5699 5698 5697 5696 5694 5693 5691 5690 5688 5687 5685 5684 5682 5680 5677 5675 5672 5669 5666 5664 5661 5658 5655 5652 5649 5646 5643 5640 5637 5634 5631
5682 5683 5684 5684 5684 5684 5685 5686 5687 5687 5688 5689 5690 5691 5692 5693 5693 5694 5694 5694 5694 5694 5693 5693 5694 5695 5695 5696 5697 5697 5698 5698 5698 5698 5699 5699 5700 5700 5699 5699 5699 5698 5698 5698 5698 5697 5697 5696 5696 5696 5695 5695 5694 5694 5693 5692 5691 5689 5688 5686 5684 5682 5681 5679 5677 5676 5674 5672 5669 5666 5663 5661 5658 5655 5652 5649 5646 5642 5639 5636 5633 5630 5627 5624 5621
5677 5678 5679 5680 5681 5681 5681 5682 5682 5682 5683 5684 5685 5686 5687 5688 5689 5689 5689 5689 5689 5690 5689 5689 5690 5690 5691 5691 5692 5692 5692 5693 5693 5694 5694 5695 5695 5695 5694 5693 5693 5693 5693 5692 5692 5692 5691 5691 5690 5690 5690 5689 5688 5687 5686 5685 5684 5683 5681 5679 5677 5675 5673 5671 5669 5668 5666 5663 5660 5657 5655 5652 5649 5646 5643 5640 5637 5633 5630 5627 5624 5621 5618 5616 5613
5672 5673 5674 5675 5675 5676 5676 5677 5678 5678 5678 5679 5680 5681 5682 5682 5683 5684 5684 5685 5685 5685 5685 5685 5685 5685 5686 5687 5687 5687 5687 5687 5688 5688 5689 5690 5690 5690 5689 5688 5688 5687 5687 5687 5687 5686 5686 5685 5685 5684 5683 5683 5682 5681 5680 5679 5678 5676 5675 5672 5670 5667 5665 5663 5661 5660 5658 5655 5652 5649 5646 5643 5640 5637 5633 5630 5627 5624 5621 5619 5616 5613 5610 5607 5605
5667 5668 5670 5671 5672 5672 5672 5672 5673 5673 5674 5674 5675 5675 5676 5677 5677 5678 5679 5680 5681 5681 5681 5681 5681 5681 5681 5682 5683 5683 5683 5682 5683 5683 5684 5684 5684 5683 5682 5682 5682 5682 5682 5682 5681 5681 5680 5680 5679 5678 5677 5676 5675 5674 5674 5673 5672 5670 5668 5665 5663 5660 5657 5655 5653 5651 5649 5646 5643 5640 5637 5634 5631 5628 5625 5622 5619 5616 5613 5610 5607 5605 5602 5599 5597
5663 5663 5665 5667 5668 5669 5669 5668 5669 5669 5669 5669 5670 5670 5671 5671 5672 5673 5674 5675 5675 5676 5676 5676 5676 5677 5677 5678 5678 5678 5678 5678 5678 5679 5679 5679 5678 5677 5676 5676 5676 5676 5676 5676 5676 5675 5675 5674 5673 5672 5671 5670 5668 5667 5666 5665 5664 5663 5661 5659 5656 5653 5651 5648 5645 5643 5641 5638 5634 5632 5629 5627 5624 5620 5617 5614 5611 5608 5606 5603 5599 5597 5594 5591 5588
5658 5660 5661 5663 5664 5665 5665 5665 5665 5665 5666 5666 5666 5666 5667 5667 5667 5668 5669 5669 5669 5670 5670 5671 5671 5672 5673 5673 5673 5673 5673 5673 5674 5674 5674 5674 5673 5672 5672 5672 5672 5672 5671 5671 5670 5669 5669 5668 5667 5666 5665 5663 5662 5660 5659 5658 5657 5655 5653 5651 5649 5647 5644 5641 5638 5635 5633 5630 5627 5624 5621 5619 5616 5613 5610 5607 5604 5601 5598 5595 5592 5589 5586 5583 5580
5654 5655 5657 5659 5660 5661 5661 5661 5661 5662 5662 5663 5663 5663 5663 5663 5664 5664 5664 5664 5664 5664 5665 5665 5666 5667 5667 5668 5667 5667 5668 5668 5668 5668 5668 5668 5668 5667 5667 5667 5667 5667 5666 5665 5664 5664 5663 5662 5661 5660 5658 5657 5655 5654 5653 5651 5649 5648 5646 5644 5642 5640 5637 5635 5632 5628 5625 5623 5620 5616 5614 5611 5608 5605 5602 5599 5596 5594 5591 5588 5585 5581 5578 5575 5572
5649 5651 5652 5654 5655 5656 5656 5656 5657 5657 5657 5658 5659 5659 5659 5659 5659 5659 5660 5660 5659 5659 5660 5661 5661 5662 5662 5662 5661 5662 5662 5663 5663 5663 5663 5663 5662 5661 5661 5661 5662 5661 5660 5659 5659 5658 5657 5656 5655 5654 5652 5651 5649 5648 5646 5645 5643 5641 5639 5637 5635 5632 5630 5627 5625 5622 5618 5616 5613 5610 5607 5604 5601 5598 5594 5591 5589 5586 5584 5581 5578 5575 5572 5569 5566
5644 5645 5647 5649 5650 5650 5650 5650 5651 5652 5652 5652 5653 5654 5654 5654 5654 5655 5655 5654 5654 5654 5655 5656 5657 5657 5656 5656 5656 5657 5657 5658 5658 5658 5657 5656 5656 5655 5655 5655 5656 5655 5655 5654 5653 5652 5651 5650 5649 5648 5647 5645 5643 5641 5640 5638 5636 5634 5632 5629 5627 5625 5622 5620 5617 5615 5612 5610 5607 5604 5601 5597 5594 5591 5587 5585 5582 5580 5578 5575 5572 5569 5566 5563 5560
5637 5639 5641 5643 5643 5644 5644 5644 5645 5646 5646 5646 5647 5648 5648 5648 5649 5649 5650 5649 5648 5648 5650 5651 5651 5651 5651 5651 5651 5652 5652 5653 5652 5652 5651 5651 5650 5650 5650 5650 5649 5649 5649 5648 5648 5646 5645 5644 5643 5642 5640 5638 5637 5635 5633 5631 5629 5627 5625 5622 5620 5618 5616 5614 5611 5609 5606 5604 5601 5598 5595 5592 5589 5586 5582 5579 5577 5575 5573 5570 5567 5564 5561 5557 5554
5631 5632 5634 5636 5637 5637 5638 5638 5639 5640 5640 5641 5641 5642 5642 5643 5644 5644 5645 5644 5643 5643 5645 5646 5646 5646 5646 5646 5647 5647 5648 5647 5647 5646 5646 5646 5645 5645 5645 5645 5643 5642 5642 5642 5641 5640 5639 5638 5637 5635 5634 5632 5630 5628 5626 5624 5623 5621 5619 5617 5615 5613 5610 5608 5606 5603 5600 5597 5594 5592 5589 5587 5584 5581 5578 5575 5572 5570 5568 5565 5562 5559 5556 5552 5550
5625 5625 5627 5629 5630 5631 5631 5632 5632 5633 5634 5635 5636 5636 5636 5637 5638 5639 5639 5638 5637 5638 5640 5641 5641 5641 5640 5640 5641 5642 5642 5642 5641 5640 5640 5640 5640 5640 5640 5639 5638 5637 5636 5635 5634 5633 5632 5631 5630 5629 5627 5626 5624 5623 5621 5619 5617 5615 5613 5612 5610 5608 5605 5603 5600 5597 5594 5591 5588 5586 5583 5581 5579 5576 5573 5570 5567 5565 5563 5560 5557 5554 5550 5548 5546
5620 5620 5621 5623 5624 5625 5625 5625 5626 5626 5627 5629 5630 5631 5631 5631 5632 5633 5633 5632 5631 5633 5634 5635 5635 5634 5634 5634 5635 5636 5636 5636 5635 5635 5634 5634 5634 5634 5634 5634 5633 5632 5630 5629 5628 5627 5626 5625 5624 5623 5622 5620 5619 5617 5616 5614 5612 5610 5609 5607 5605 5602 5600 5597 5594 5591 5588 5586 5583 5580 5578 5576 5574 5571 5569 5566 5562 5560 5557 5555 5552 5549 5546 5544 5542
5615 5615 5615 5616 5618 5619 5619 5619 5620 5620 5621 5622 5622 5624 5625 5626 5626 5627 5627 5626 5626 5627 5628 5629 5628 5628 5628 5628 5629 5629 5630 5629 5629 5629 5629 5628 5627 5627 5628 5628 5627 5626 5625 5624 5623 5622 5621 5620 5619 5618 5617 5615 5614 5612 5611 5609 5608 5606 5604 5602 5599 5597 5594 5591 5588 5586 5583 5581 5578 5576 5573 5571 5568 5566 5564 5561 5558 5555 5552 5550 5547 5545 5543 5541 5540
5610 5610 5609 5610 5611 5612 5613 5614 5614 5614 5615 5615 5615 5617 5618 5619 5620 5620 5620 5620 5620 5620 5622 5622 5622 5622 5622 5622 5622 5623 5623 5623 5623 5624 5624 5623 5622 5622 5621 5622 5622 5621 5620 5619 5618 5617 5616 5615 5614 5613 5612 5611 5610 5608 5607 5605 5603 5601 5599 5597 5595 5592 5590 5587 5584 5581 5579 5576 5574 5572 5569 5567 5564 5562 5559 5557 5554 5551 5548 5545 5543 5541 5540 5538 5537
5604 5605 5604 5604 5605 5606 5607 5607 5608 5608 5609 5609 5609 5610 5611 5612 5613 5613 5613 5613 5614 5614 5616 5617 5616 5615 5615 5615 5616 5616 5616 5617 5617 5618 5618 5617 5617 5617 5616 5616 5616 5615 5614 5614 5613 5612 5612 5611 5610 5608 5607 5606 5605 5604 5603 5601 5599 5597 5595 5593 5590 5588 5586 5583 5580 5577 5575 5573 5570 5568 5566 5563 5561 5558 5555 5553 5550 5547 5544 5542 5540 5538 5537 5536 5535
5599 5600 5599 5599 5599 5600 5601 5601 5602 5602 5603 5603 5604 5604 5604 5606 5607 5608 5608 5607 5608 5609 5610 5611 5612 5610 5609 5609 5610 5610 5611 5611 5612 5612 5612 5612 5612 5612 5611 5611 5611 5610 5609 5609 5608 5607 5607 5607 5606 5605 5604 5602 5601 5600 5598 5597 5595 5593 5591 5589 5587 5584 5582 5579 5576 5574 5571 5569 5567 5565 5562 5560 5557 5555 5552 5549 5546 5543 5541 5538 5537 5536 5535 5533 5532
5594 5595 5595 5594 5594 5594 5595 5596 5596 5596 5597 5597 5598 5598 5598 5599 5601 5602 5602 5602 5602 5603 5605 5606 5606 5605 5604 5604 5604 5605 5606 5606 5606 5606 5607 5607 5606 5606 5606 5606 5606 5605 5605 5604 5603 5603 5603 5602 5602 5601 5600 5599 5598 5596 5595 5593 5592 5590 5588 5586 5584 5581 5578 5576 5573 5570 5568 5566 5563 5561 5559 5557 5554 5551 5549 5546 5543 5540 5538 5536 5534 5533 5532 5531 5529
5589 5590 5590 5590 5589 5589 5590 5590 5591 5591 5591 5592 5592 5593 5593 5593 5594 5595 5596 5596 5596 5597 5599 5600 5600 5599 5599 5599 5599 5599 5600 5600 5600 5601 5601 5601 5601 5601 5601 5601 5601 5600 5600 5600 5599 5599 5598 5598 5598 5597 5596 5595 5594 5593 5592 5590 5589 5587 5585 5583 5581 5578 5575 5572 5570 5567 5565 5563 5560 5558 5556 5553 5551 5548 5546 5543 5540 5538 5535 5533 5532 5530 5529 5528 5526
5586 5585 5585 5586 5585 5585 5585 5585 5585 5585 5586 5586 5587 5588 5588 5588 5588 5589 5590 5590 5591 5592 5593 5594 5594 5594 5593 5593 5594 5594 5594 5595 5595 5595 5596 5596 5596 5596 5596 5596 5596 5596 5596 5596 5596 5595 5595 5595 5594 5593 5593 5592 5591 5589 5588 5587 5586 5584 5582 5580 5578 5575 5572 5569 5567 5564 5562 5560 5557 5555 5553 5550 5548 5545 5543 5540 5538 5535 5533 5531 5529 5528 5526 5525 5523
5582 5582 5581 5581 5581 5581 5581 5581 5581 5581 5581 5581 5582 5582 5583 5584 5584 5584 5584 5585 5585 5586 5587 5588 5589 5588 5588 5588 5589 5589 5589 5589 5590 5590 5590 5590 5591 5591 5591 5591 5591 5591 5592 5592 5592 5592 5591 5591 5591 5590 5589 5588 5587 5586 5585 5584 5583 5581 5579 5577 5575 5572 5570 5567 5564 5562 5559 5557 5555 5552 5550 5547 5545 5543 5540 5538 5535 5533 5531 5529 5527 5525 5523 5522 5521
5579 5578 5577 5577 5577 5577 5576 5576 5576 5576 5576 5576 5576 5577 5577 5578 5579 5579 5579 5580 5581 5581 5582 5583 5583 5583 5583 5584 5584 5584 5584 5584 5585 5585 5585 5585 5586 5586 5586 5587 5587 5587 5588 5588 5588 5588 5588 5587 5587 5586 5586 5585 5584 5583 5582 5581 5579 5578 5576 5574 5572 5570 5567 5564 5562 5559 5557 5554 5552 5550 5547 5545 5543 5540 5538 5536 5533 5531 5529 5527 5525 5523 5521 5520 5518
5576 5575 5574 5573 5573 5573 5572 5572 5572 5572 5572 5572 5572 5571 5571 5572 5573 5574 5574 5575 5575 5576 5577 5577 5578 5578 5578 5579 5579 5578 5579 5579 5580 5580 5580 5581 5581 5582 5582 5583 5583 5584 5584 5584 5584 5584 5584 5584 5583 5583 5582 5581 5581 5580 5578 5577 5576 5575 5573 5572 5569 5567 5565 5562 5559 5556 5554 5551 5549 5547 5545 5543 5540 5538 5536 5534 5532 5529 5527 5525 5523 5521 5519 5517 5516
5572 5571 5571 5570 5569 5569 5568 5568 5568 5568 5567 5567 5567 5567 5567 5567 5567 5568 5569 5570 5570 5570 5571 5572 5572 5572 5573 5573 5573 5573 5573 5575 5575 5575 5576 5576 5577 5578 5578 5579 5579 5580 5580 5580 5580 5581 5580 5580 5580 5579 5579 5578 5577 5576 5575 5574 5573 5572 5570 5569 5567 5564 5562 5559 5557 5554 5552 5549 5547 5544 5542 5540 5538 5536 5534 5532 5530 5527 5525 5523 5521 5519 5517 5515 5514